Time,TemperatureF,DewpointF,PressureIn,WindDirection,WindDirectionDegrees,WindSpeedMPH,WindSpeedGustMPH,Humidity,HourlyPrecipIn,Conditions,Clouds,dailyrainin,SoftwareType,DateUTC
2013-01-08 00:01:00,50.0,41.7,30.20,ENE,69,1.0,6.0,73,0.00,,SKC,0.00,VWS V14.01,2013-01-08 06:01:00,
2013-01-08 00:06:00,49.8,41.9,30.19,ENE,69,0.0,5.0,74,0.00,,SKC,0.00,VWS V14.01,2013-01-08 06:06:00,
2013-01-08 00:11:00,49.5,41.9,30.19,ENE,69,1.0,5.0,75,0.00,,SKC,0.00,VWS V14.01,2013-01-08 06:11:00,
2013-01-08 00:16:00,49.3,42.1,30.19,ENE,69,0.0,5.0,76,0.00,,SKC,0.00,VWS V14.01,2013-01-08 06:16:00,
2013-01-08 00:21:00,49.0,41.8,30.19,ENE,69,2.0,5.0,76,0.00,,SKC,0.00,VWS V14.01,2013-01-08 06:21:00,
2013-01-08 00:26:00,48.7,41.8,30.19,ENE,69,0.0,5.0,77,0.00,,SKC,0.00,VWS V14.01,2013-01-08 06:26:00,
2013-01-08 00:31:00,48.6,41.7,30.18,ENE,69,1.0,5.0,77,0.00,,SKC,0.00,VWS V14.01,2013-01-08 06:31:00,
2013-01-08 00:36:00,48.4,41.5,30.18,ENE,69,1.0,2.0,77,0.00,,SKC,0.00,VWS V14.01,2013-01-08 06:36:00,
2013-01-08 00:41:00,48.3,41.4,30.18,ENE,69,0.0,4.0,77,0.00,,SKC,0.00,VWS V14.01,2013-01-08 06:41:00,
2013-01-08 00:46:00,48.2,41.7,30.18,ENE,69,0.0,4.0,78,0.00,,SKC,0.00,VWS V14.01,2013-01-08 06:46:00,
2013-01-08 00:51:00,48.1,41.6,30.18,ENE,69,1.0,4.0,78,0.00,,SKC,0.00,VWS V14.01,2013-01-08 06:51:00,
2013-01-08 00:56:00,48.0,41.8,30.18,ENE,69,2.0,4.0,79,0.00,,SKC,0.00,VWS V14.01,2013-01-08 06:56:00,
2013-01-08 01:01:00,48.0,41.8,30.18,ENE,69,0.0,4.0,79,0.00,,SKC,0.00,VWS V14.01,2013-01-08 07:01:00,
2013-01-08 01:06:00,48.2,42.0,30.18,ENE,69,1.0,2.0,79,0.00,,SKC,0.00,VWS V14.01,2013-01-08 07:06:00,
2013-01-08 01:11:00,48.3,42.4,30.18,ENE,69,4.0,5.0,80,0.00,,SKC,0.00,VWS V14.01,2013-01-08 07:11:00,
2013-01-08 01:16:00,48.6,42.4,30.19,ENE,69,0.0,5.0,79,0.00,,SKC,0.00,VWS V14.01,2013-01-08 07:16:00,
2013-01-08 01:21:00,48.8,42.6,30.18,NE,48,3.0,5.0,79,0.00,,SKC,0.00,VWS V14.01,2013-01-08 07:21:00,
2013-01-08 01:26:00,49.0,42.8,30.18,NE,56,1.0,5.0,79,0.00,,SKC,0.00,VWS V14.01,2013-01-08 07:26:00,
2013-01-08 01:31:00,49.1,42.5,30.18,NE,56,2.0,5.0,78,0.00,,SKC,0.00,VWS V14.01,2013-01-08 07:31:00,
2013-01-08 01:36:00,49.2,42.6,30.18,East,86,2.0,6.0,78,0.00,,SKC,0.00,VWS V14.01,2013-01-08 07:36:00,
2013-01-08 01:41:00,49.4,42.8,30.18,East,85,2.0,6.0,78,0.00,,SKC,0.00,VWS V14.01,2013-01-08 07:41:00,
2013-01-08 01:46:00,49.5,42.9,30.18,East,79,1.0,6.0,78,0.00,,SKC,0.00,VWS V14.01,2013-01-08 07:46:00,
2013-01-08 01:51:00,49.6,43.0,30.18,ENE,59,2.0,7.0,78,0.00,,SKC,0.00,VWS V14.01,2013-01-08 07:51:00,
2013-01-08 01:56:00,49.8,42.9,30.18,East,100,4.0,7.0,77,0.00,,SKC,0.00,VWS V14.01,2013-01-08 07:56:00,
2013-01-08 02:01:00,49.9,43.0,30.18,ENE,73,1.0,8.0,77,0.00,,SKC,0.00,VWS V14.01,2013-01-08 08:01:00,
2013-01-08 02:06:00,50.0,43.1,30.18,ESE,117,1.0,6.0,77,0.00,,SKC,0.00,VWS V14.01,2013-01-08 08:06:00,
2013-01-08 02:11:00,50.1,43.2,30.18,East,94,4.0,6.0,77,0.00,,SKC,0.00,VWS V14.01,2013-01-08 08:11:00,
2013-01-08 02:16:00,50.2,43.3,30.18,ENE,63,6.0,6.0,77,0.00,,SKC,0.00,VWS V14.01,2013-01-08 08:16:00,
2013-01-08 02:21:00,50.3,43.7,30.17,ESE,102,5.0,6.0,78,0.00,,SKC,0.00,VWS V14.01,2013-01-08 08:21:00,
2013-01-08 02:26:00,50.4,43.5,30.17,ESE,107,4.0,10.0,77,0.00,,SKC,0.00,VWS V14.01,2013-01-08 08:26:00,
2013-01-08 02:31:00,50.5,43.6,30.18,East,97,2.0,10.0,77,0.00,,SKC,0.00,VWS V14.01,2013-01-08 08:31:00,
2013-01-08 02:36:00,50.5,43.6,30.17,East,96,2.0,6.0,77,0.00,,SKC,0.00,VWS V14.01,2013-01-08 08:36:00,
2013-01-08 02:41:00,50.4,43.5,30.17,East,88,7.0,8.0,77,0.00,,SKC,0.00,VWS V14.01,2013-01-08 08:41:00,
2013-01-08 02:46:00,50.3,43.7,30.17,East,86,4.0,8.0,78,0.00,,SKC,0.00,VWS V14.01,2013-01-08 08:46:00,
2013-01-08 02:51:00,50.3,43.7,30.17,East,83,5.0,8.0,78,0.00,,SKC,0.00,VWS V14.01,2013-01-08 08:51:00,
2013-01-08 02:56:00,50.2,43.6,30.17,East,82,4.0,8.0,78,0.00,,SKC,0.00,VWS V14.01,2013-01-08 08:56:00,
2013-01-08 03:01:00,50.2,43.6,30.17,East,79,2.0,8.0,78,0.00,,SKC,0.00,VWS V14.01,2013-01-08 09:01:00,
2013-01-08 03:06:00,50.2,44.0,30.17,East,81,1.0,7.0,79,0.00,,SKC,0.00,VWS V14.01,2013-01-08 09:06:00,
2013-01-08 03:11:00,50.2,44.0,30.17,East,81,5.0,9.0,79,0.00,,SKC,0.00,VWS V14.01,2013-01-08 09:11:00,
2013-01-08 03:16:00,50.1,43.8,30.17,East,100,4.0,9.0,79,0.00,,SKC,0.00,VWS V14.01,2013-01-08 09:16:00,
2013-01-08 03:21:00,50.2,44.3,30.17,East,96,2.0,9.0,80,0.00,,SKC,0.00,VWS V14.01,2013-01-08 09:21:00,
2013-01-08 03:26:00,50.2,44.3,30.17,ENE,57,5.0,9.0,80,0.00,,SKC,0.00,VWS V14.01,2013-01-08 09:26:00,
2013-01-08 03:31:00,50.2,44.3,30.17,ENE,76,2.0,9.0,80,0.00,,SKC,0.00,VWS V14.01,2013-01-08 09:31:00,
2013-01-08 03:36:00,50.3,44.4,30.17,East,83,2.0,5.0,80,0.00,,SKC,0.00,VWS V14.01,2013-01-08 09:36:00,
2013-01-08 03:41:00,50.3,44.7,30.17,East,94,4.0,6.0,81,0.00,,SKC,0.00,VWS V14.01,2013-01-08 09:41:00,
2013-01-08 03:46:00,50.3,44.7,30.16,NE,39,6.0,8.0,81,0.00,,SKC,0.00,VWS V14.01,2013-01-08 09:46:00,
2013-01-08 03:51:00,50.4,44.8,30.16,East,92,4.0,8.0,81,0.00,,SKC,0.00,VWS V14.01,2013-01-08 09:51:00,
2013-01-08 03:56:00,50.5,44.9,30.16,East,98,3.0,8.0,81,0.00,,SKC,0.00,VWS V14.01,2013-01-08 09:56:00,
2013-01-08 04:01:00,50.6,45.0,30.16,East,87,5.0,8.0,81,0.00,,SKC,0.00,VWS V14.01,2013-01-08 10:01:00,
2013-01-08 04:06:00,50.7,45.4,30.16,East,86,5.0,7.0,82,0.00,,SKC,0.00,VWS V14.01,2013-01-08 10:06:00,
2013-01-08 04:11:00,50.8,45.5,30.16,East,88,1.0,7.0,82,0.00,,SKC,0.00,VWS V14.01,2013-01-08 10:11:00,
2013-01-08 04:16:00,50.9,45.6,30.16,East,97,2.0,8.0,82,0.00,,SKC,0.00,VWS V14.01,2013-01-08 10:16:00,
2013-01-08 04:21:00,50.9,45.6,30.16,ENE,67,5.0,9.0,82,0.00,,SKC,0.00,VWS V14.01,2013-01-08 10:21:00,
2013-01-08 04:26:00,51.0,46.0,30.16,ENE,75,4.0,9.0,83,0.00,,SKC,0.00,VWS V14.01,2013-01-08 10:26:00,
2013-01-08 04:31:00,51.0,46.0,30.16,ESE,107,4.0,9.0,83,0.00,,SKC,0.00,VWS V14.01,2013-01-08 10:31:00,
2013-01-08 04:36:00,51.1,46.1,30.16,ENE,67,5.0,6.0,83,0.00,,SKC,0.00,VWS V14.01,2013-01-08 10:36:00,
2013-01-08 04:40:00,51.2,46.2,30.16,East,92,4.0,6.0,83,0.00,,SKC,0.00,VWS V14.01,2013-01-08 10:40:00,
2013-01-08 04:46:00,51.2,46.2,30.16,East,84,5.0,10.0,83,0.00,,SKC,0.00,VWS V14.01,2013-01-08 10:46:00,
2013-01-08 04:51:00,51.2,46.2,30.16,ENE,59,4.0,10.0,83,0.00,,SKC,0.00,VWS V14.01,2013-01-08 10:51:00,
2013-01-08 04:56:00,51.1,46.1,30.16,East,87,5.0,10.0,83,0.00,,SKC,0.00,VWS V14.01,2013-01-08 10:56:00,
2013-01-08 05:01:00,51.1,46.4,30.16,East,79,7.0,10.0,84,0.00,,SKC,0.00,VWS V14.01,2013-01-08 11:01:00,
2013-01-08 05:06:00,51.0,46.3,30.16,ENE,76,2.0,8.0,84,0.00,,SKC,0.00,VWS V14.01,2013-01-08 11:06:00,
2013-01-08 05:11:00,50.8,46.2,30.17,East,84,1.0,8.0,84,0.00,,SKC,0.00,VWS V14.01,2013-01-08 11:11:00,
2013-01-08 05:16:00,50.7,46.0,30.17,ENE,78,4.0,10.0,84,0.00,,SKC,0.00,VWS V14.01,2013-01-08 11:16:00,
2013-01-08 05:21:00,50.5,46.2,30.16,East,101,1.0,10.0,85,0.00,,SKC,0.00,VWS V14.01,2013-01-08 11:21:00,
2013-01-08 05:25:00,50.4,46.1,30.17,East,101,7.0,10.0,85,0.00,,SKC,0.00,VWS V14.01,2013-01-08 11:25:00,
2013-01-08 05:30:00,50.4,46.1,30.17,East,93,5.0,10.0,85,0.00,,SKC,0.00,VWS V14.01,2013-01-08 11:30:00,
2013-01-08 05:35:00,50.4,46.1,30.17,ESE,105,4.0,7.0,85,0.00,,SKC,0.00,VWS V14.01,2013-01-08 11:35:00,
2013-01-08 05:40:00,50.3,46.0,30.17,East,93,5.0,9.0,85,0.00,,SKC,0.00,VWS V14.01,2013-01-08 11:40:00,
2013-01-08 05:45:00,50.3,46.0,30.17,ESE,109,5.0,9.0,85,0.00,,SKC,0.00,VWS V14.01,2013-01-08 11:45:00,
2013-01-08 05:50:00,50.2,46.2,30.17,East,96,4.0,9.0,86,0.00,,SKC,0.00,VWS V14.01,2013-01-08 11:50:00,
2013-01-08 05:55:00,50.2,46.2,30.18,East,96,3.0,9.0,86,0.00,,SKC,0.00,VWS V14.01,2013-01-08 11:55:00,
2013-01-08 06:00:00,50.2,46.2,30.18,East,87,6.0,9.0,86,0.00,,SKC,0.00,VWS V14.01,2013-01-08 12:00:00,
2013-01-08 06:05:00,50.2,46.2,30.18,East,87,5.0,9.0,86,0.00,,SKC,0.00,VWS V14.01,2013-01-08 12:05:00,
2013-01-08 06:10:00,50.3,46.3,30.18,ENE,65,8.0,9.0,86,0.00,,SKC,0.00,VWS V14.01,2013-01-08 12:10:00,
2013-01-08 06:15:00,50.4,46.4,30.18,ENE,64,6.0,9.0,86,0.00,,SKC,0.00,VWS V14.01,2013-01-08 12:15:00,
2013-01-08 06:20:00,50.4,46.4,30.18,East,82,4.0,9.0,86,0.00,,SKC,0.00,VWS V14.01,2013-01-08 12:20:00,
2013-01-08 06:25:00,50.4,46.4,30.19,ENE,75,2.0,9.0,86,0.00,,SKC,0.00,VWS V14.01,2013-01-08 12:25:00,
2013-01-08 06:30:00,50.4,46.4,30.19,East,84,5.0,9.0,86,0.00,,SKC,0.00,VWS V14.01,2013-01-08 12:30:00,
2013-01-08 06:35:00,50.4,46.7,30.19,East,89,4.0,9.0,87,0.00,,SKC,0.00,VWS V14.01,2013-01-08 12:35:00,
2013-01-08 06:40:00,50.3,46.6,30.19,ESE,102,3.0,9.0,87,0.00,,SKC,0.00,VWS V14.01,2013-01-08 12:40:00,
2013-01-08 06:45:00,50.4,46.7,30.18,East,84,5.0,9.0,87,0.00,,SKC,0.00,VWS V14.01,2013-01-08 12:45:00,
2013-01-08 06:50:00,50.3,46.6,30.18,ENE,63,4.0,9.0,87,0.00,,SKC,0.00,VWS V14.01,2013-01-08 12:50:00,
2013-01-08 06:55:00,50.2,46.5,30.19,ENE,77,6.0,9.0,87,0.00,,SKC,0.00,VWS V14.01,2013-01-08 12:55:00,
2013-01-08 07:00:00,50.2,46.8,30.18,East,91,6.0,9.0,88,0.00,,SKC,0.00,VWS V14.01,2013-01-08 13:00:00,
2013-01-08 07:05:00,50.2,46.8,30.18,ESE,104,2.0,8.0,88,0.00,,SKC,0.00,VWS V14.01,2013-01-08 13:05:00,
2013-01-08 07:10:00,50.3,46.9,30.19,ENE,61,5.0,10.0,88,0.00,,SKC,0.00,VWS V14.01,2013-01-08 13:10:00,
2013-01-08 07:15:00,50.5,47.1,30.19,East,90,4.0,10.0,88,0.00,,SKC,0.00,VWS V14.01,2013-01-08 13:15:00,
2013-01-08 07:20:00,50.6,47.2,30.19,East,92,4.0,10.0,88,0.00,,SKC,0.00,VWS V14.01,2013-01-08 13:20:00,
2013-01-08 07:25:00,50.7,47.3,30.20,East,97,2.0,10.0,88,0.00,,SKC,0.00,VWS V14.01,2013-01-08 13:25:00,
2013-01-08 07:30:00,50.8,47.4,30.20,ENE,71,5.0,10.0,88,0.00,,SKC,0.00,VWS V14.01,2013-01-08 13:30:00,
2013-01-08 07:35:00,51.1,47.7,30.20,ENE,71,1.0,10.0,88,0.00,,SKC,0.00,VWS V14.01,2013-01-08 13:35:00,
2013-01-08 07:40:00,51.2,47.8,30.21,ENE,78,4.0,10.0,88,0.00,,SKC,0.00,VWS V14.01,2013-01-08 13:40:00,
2013-01-08 07:45:00,51.3,47.9,30.21,ENE,63,6.0,10.0,88,0.00,,SKC,0.00,VWS V14.01,2013-01-08 13:45:00,
2013-01-08 07:50:00,51.4,48.0,30.21,NE,49,4.0,10.0,88,0.00,,SKC,0.00,VWS V14.01,2013-01-08 13:50:00,
2013-01-08 07:55:00,51.5,48.1,30.22,ENE,75,7.0,10.0,88,0.00,,SKC,0.00,VWS V14.01,2013-01-08 13:55:00,
2013-01-08 08:00:00,51.6,48.2,30.21,ENE,78,5.0,10.0,88,0.00,,SKC,0.00,VWS V14.01,2013-01-08 14:00:00,
2013-01-08 08:05:00,51.9,48.5,30.22,ENE,71,6.0,8.0,88,0.00,,SKC,0.00,VWS V14.01,2013-01-08 14:05:00,
2013-01-08 08:10:00,52.6,48.8,30.22,ENE,71,8.0,9.0,87,0.00,,SKC,0.00,VWS V14.01,2013-01-08 14:10:00,
2013-01-08 08:15:00,53.1,49.0,30.22,East,90,2.0,9.0,86,0.00,,SKC,0.00,VWS V14.01,2013-01-08 14:15:00,
2013-01-08 08:20:00,53.8,49.7,30.22,East,101,4.0,9.0,86,0.00,,SKC,0.00,VWS V14.01,2013-01-08 14:20:00,
2013-01-08 08:25:00,54.3,49.9,30.21,East,98,1.0,9.0,85,0.00,,SKC,0.00,VWS V14.01,2013-01-08 14:25:00,
2013-01-08 08:30:00,54.8,50.1,30.22,SE,136,5.0,11.0,84,0.00,,SKC,0.00,VWS V14.01,2013-01-08 14:30:00,
2013-01-08 08:35:00,55.3,50.6,30.22,ESE,108,2.0,9.0,84,0.00,,SKC,0.00,VWS V14.01,2013-01-08 14:35:00,
2013-01-08 08:40:00,55.8,51.0,30.22,East,80,4.0,11.0,84,0.00,,SKC,0.00,VWS V14.01,2013-01-08 14:40:00,
2013-01-08 08:45:00,56.0,50.9,30.22,ENE,61,2.0,11.0,83,0.00,,SKC,0.00,VWS V14.01,2013-01-08 14:45:00,
2013-01-08 08:50:00,56.2,51.1,30.23,East,93,2.0,11.0,83,0.00,,SKC,0.00,VWS V14.01,2013-01-08 14:50:00,
2013-01-08 08:55:00,56.6,51.5,30.23,East,94,6.0,11.0,83,0.00,,SKC,0.00,VWS V14.01,2013-01-08 14:55:00,
2013-01-08 09:00:00,56.5,51.4,30.23,NE,49,5.0,11.0,83,0.00,,SKC,0.00,VWS V14.01,2013-01-08 15:00:00,
2013-01-08 09:05:00,56.8,51.7,30.24,East,86,1.0,7.0,83,0.00,,SKC,0.00,VWS V14.01,2013-01-08 15:05:00,
2013-01-08 09:10:00,56.8,51.7,30.24,ENE,71,4.0,7.0,83,0.00,,SKC,0.00,VWS V14.01,2013-01-08 15:10:00,
2013-01-08 09:15:00,56.8,51.7,30.24,East,93,2.0,7.0,83,0.00,,SKC,0.00,VWS V14.01,2013-01-08 15:15:00,
2013-01-08 09:20:00,57.1,52.0,30.24,ENE,69,2.0,7.0,83,0.00,,SKC,0.00,VWS V14.01,2013-01-08 15:20:00,
2013-01-08 09:25:00,57.7,52.6,30.24,East,82,4.0,7.0,83,0.00,,SKC,0.00,VWS V14.01,2013-01-08 15:25:00,
2013-01-08 09:30:00,57.9,52.8,30.24,ENE,68,5.0,7.0,83,0.00,,SKC,0.00,VWS V14.01,2013-01-08 15:30:00,
2013-01-08 09:35:00,58.2,53.1,30.23,ENE,72,6.0,7.0,83,0.00,,SKC,0.00,VWS V14.01,2013-01-08 15:35:00,
2013-01-08 09:40:00,58.6,53.1,30.24,ESE,105,4.0,9.0,82,0.00,,SKC,0.00,VWS V14.01,2013-01-08 15:40:00,
2013-01-08 09:45:00,59.3,53.8,30.24,East,96,6.0,9.0,82,0.00,,SKC,0.00,VWS V14.01,2013-01-08 15:45:00,
2013-01-08 09:50:00,59.7,53.9,30.24,East,90,6.0,9.0,81,0.00,,SKC,0.00,VWS V14.01,2013-01-08 15:50:00,
2013-01-08 09:55:00,59.6,53.4,30.24,East,88,5.0,9.0,80,0.00,,SKC,0.00,VWS V14.01,2013-01-08 15:55:00,
2013-01-08 10:00:00,59.4,53.6,30.24,East,90,7.0,9.0,81,0.00,,SKC,0.00,VWS V14.01,2013-01-08 16:00:00,
2013-01-08 10:05:00,59.4,53.9,30.24,East,93,7.0,10.0,82,0.00,,SKC,0.00,VWS V14.01,2013-01-08 16:05:00,
2013-01-08 10:10:00,59.5,54.0,30.23,ESE,103,7.0,10.0,82,0.00,,SKC,0.00,VWS V14.01,2013-01-08 16:10:00,
2013-01-08 10:15:00,59.8,54.3,30.23,ENE,67,8.0,10.0,82,0.00,,SKC,0.00,VWS V14.01,2013-01-08 16:15:00,
2013-01-08 10:20:00,60.3,54.8,30.23,East,96,1.0,10.0,82,0.00,,SKC,0.00,VWS V14.01,2013-01-08 16:20:00,
2013-01-08 10:25:00,60.6,54.8,30.23,East,97,2.0,10.0,81,0.00,,SKC,0.00,VWS V14.01,2013-01-08 16:25:00,
2013-01-08 10:30:00,60.5,55.0,30.23,ESE,113,3.0,10.0,82,0.00,,SKC,0.00,VWS V14.01,2013-01-08 16:30:00,
2013-01-08 10:35:00,60.6,55.1,30.22,SE,127,6.0,7.0,82,0.00,,SKC,0.00,VWS V14.01,2013-01-08 16:35:00,
2013-01-08 10:40:00,60.6,54.8,30.22,ESE,123,4.0,8.0,81,0.00,,SKC,0.00,VWS V14.01,2013-01-08 16:40:00,
2013-01-08 10:45:00,60.5,55.3,30.22,East,88,5.0,8.0,83,0.00,,SKC,0.00,VWS V14.01,2013-01-08 16:45:00,
2013-01-08 10:50:00,60.7,55.5,30.22,ESE,107,4.0,8.0,83,0.00,,SKC,0.00,VWS V14.01,2013-01-08 16:50:00,
2013-01-08 10:55:00,61.4,56.2,30.22,East,85,6.0,10.0,83,0.00,,SKC,0.00,VWS V14.01,2013-01-08 16:55:00,
2013-01-08 11:00:00,61.8,56.2,30.21,East,88,6.0,10.0,82,0.00,,SKC,0.00,VWS V14.01,2013-01-08 17:00:00,
2013-01-08 11:05:00,62.2,56.6,30.21,East,92,2.0,9.0,82,0.00,,SKC,0.00,VWS V14.01,2013-01-08 17:05:00,
2013-01-08 11:10:00,63.0,57.4,30.21,SE,130,10.0,10.0,82,0.00,,SKC,0.00,VWS V14.01,2013-01-08 17:10:00,
2013-01-08 11:15:00,63.3,58.1,30.21,East,96,5.0,14.0,83,0.00,,SKC,0.00,VWS V14.01,2013-01-08 17:15:00,
2013-01-08 11:20:00,63.5,57.9,30.21,SE,130,9.0,14.0,82,0.00,,SKC,0.00,VWS V14.01,2013-01-08 17:20:00,
2013-01-08 11:25:00,63.6,58.0,30.21,ENE,67,10.0,14.0,82,0.00,,SKC,0.00,VWS V14.01,2013-01-08 17:25:00,
2013-01-08 11:30:00,63.4,57.8,30.20,ENE,70,8.0,14.0,82,0.00,,SKC,0.00,VWS V14.01,2013-01-08 17:30:00,
2013-01-08 11:35:00,62.8,57.6,30.20,ENE,74,8.0,11.0,83,0.00,,SKC,0.00,VWS V14.01,2013-01-08 17:35:00,
2013-01-08 11:40:00,62.6,57.4,30.20,East,99,5.0,11.0,83,0.00,,SKC,0.00,VWS V14.01,2013-01-08 17:40:00,
2013-01-08 11:45:00,62.7,57.5,30.20,East,82,5.0,11.0,83,0.00,,SKC,0.00,VWS V14.01,2013-01-08 17:45:00,
2013-01-08 11:50:00,63.0,57.8,30.20,ENE,61,5.0,11.0,83,0.00,,SKC,0.00,VWS V14.01,2013-01-08 17:50:00,
2013-01-08 11:55:00,63.0,57.8,30.19,East,87,6.0,11.0,83,0.00,,SKC,0.00,VWS V14.01,2013-01-08 17:55:00,
2013-01-08 12:00:00,62.9,58.0,30.19,ESE,109,7.0,11.0,84,0.00,,SKC,0.00,VWS V14.01,2013-01-08 18:00:00,
2013-01-08 12:05:00,62.9,58.0,30.18,East,88,7.0,10.0,84,0.00,,SKC,0.00,VWS V14.01,2013-01-08 18:05:00,
2013-01-08 12:10:00,63.0,58.1,30.18,East,92,6.0,10.0,84,0.00,,SKC,0.00,VWS V14.01,2013-01-08 18:10:00,
2013-01-08 12:15:00,63.0,58.1,30.18,ENE,67,4.0,10.0,84,0.00,,SKC,0.00,VWS V14.01,2013-01-08 18:15:00,
2013-01-08 12:20:00,63.1,58.2,30.18,East,88,6.0,10.0,84,0.00,,SKC,0.00,VWS V14.01,2013-01-08 18:20:00,
2013-01-08 12:25:00,63.2,58.0,30.18,East,83,6.0,10.0,83,0.00,,SKC,0.00,VWS V14.01,2013-01-08 18:25:00,
2013-01-08 12:30:00,63.2,58.3,30.17,ESE,103,8.0,10.0,84,0.00,,SKC,0.00,VWS V14.01,2013-01-08 18:30:00,
2013-01-08 12:35:00,63.3,58.4,30.17,East,89,3.0,10.0,84,0.00,,SKC,0.00,VWS V14.01,2013-01-08 18:35:00,
2013-01-08 12:40:00,63.5,58.6,30.17,East,82,5.0,10.0,84,0.00,,SKC,0.00,VWS V14.01,2013-01-08 18:40:00,
2013-01-08 12:45:00,63.8,58.9,30.17,ENE,71,5.0,10.0,84,0.00,,SKC,0.00,VWS V14.01,2013-01-08 18:45:00,
2013-01-08 12:50:00,64.1,59.2,30.17,ESE,104,5.0,10.0,84,0.00,,SKC,0.00,VWS V14.01,2013-01-08 18:50:00,
2013-01-08 12:55:00,64.8,59.5,30.16,East,91,8.0,10.0,83,0.00,,SKC,0.00,VWS V14.01,2013-01-08 18:55:00,
2013-01-08 13:00:00,64.9,59.3,30.16,East,82,4.0,11.0,82,0.00,,SKC,0.00,VWS V14.01,2013-01-08 19:00:00,
2013-01-08 13:05:00,65.0,59.4,30.16,ESE,123,9.0,10.0,82,0.00,,SKC,0.00,VWS V14.01,2013-01-08 19:05:00,
2013-01-08 13:10:00,65.1,59.5,30.15,ENE,73,4.0,10.0,82,0.00,,SKC,0.00,VWS V14.01,2013-01-08 19:10:00,
2013-01-08 13:15:00,65.3,59.7,30.15,ESE,123,14.0,14.0,82,0.00,,SKC,0.00,VWS V14.01,2013-01-08 19:15:00,
2013-01-08 13:20:00,65.3,59.7,30.15,ENE,77,4.0,14.0,82,0.00,,SKC,0.00,VWS V14.01,2013-01-08 19:20:00,
2013-01-08 13:25:00,65.6,60.0,30.15,ESE,102,5.0,14.0,82,0.00,,SKC,0.00,VWS V14.01,2013-01-08 19:25:00,
2013-01-08 13:30:00,65.8,59.8,30.15,NE,40,7.0,14.0,81,0.00,,SKC,0.00,VWS V14.01,2013-01-08 19:30:00,
2013-01-08 13:35:00,65.8,59.8,30.15,ENE,67,1.0,10.0,81,0.00,,SKC,0.00,VWS V14.01,2013-01-08 19:35:00,
2013-01-08 13:40:00,65.8,59.8,30.14,East,80,5.0,10.0,81,0.00,,SKC,0.00,VWS V14.01,2013-01-08 19:40:00,
2013-01-08 13:45:00,66.1,60.1,30.14,East,83,5.0,10.0,81,0.00,,SKC,0.00,VWS V14.01,2013-01-08 19:45:00,
2013-01-08 13:50:00,66.2,60.2,30.15,East,86,2.0,10.0,81,0.00,,SKC,0.00,VWS V14.01,2013-01-08 19:50:00,
2013-01-08 13:55:00,66.1,60.1,30.15,ENE,60,5.0,10.0,81,0.00,,SKC,0.00,VWS V14.01,2013-01-08 19:55:00,
2013-01-08 14:00:00,66.0,59.7,30.15,ENE,73,6.0,11.0,80,0.00,,SKC,0.00,VWS V14.01,2013-01-08 20:00:00,
2013-01-08 14:05:00,65.9,59.9,30.15,East,92,5.0,9.0,81,0.00,,SKC,0.00,VWS V14.01,2013-01-08 20:05:00,
2013-01-08 14:10:00,65.9,59.9,30.15,ESE,111,5.0,9.0,81,0.00,,SKC,0.00,VWS V14.01,2013-01-08 20:10:00,
2013-01-08 14:15:00,66.1,60.5,30.15,SE,140,2.0,9.0,82,0.00,,SKC,0.00,VWS V14.01,2013-01-08 20:15:00,
2013-01-08 14:20:00,66.3,60.3,30.15,ENE,75,4.0,9.0,81,0.00,,SKC,0.00,VWS V14.01,2013-01-08 20:20:00,
2013-01-08 14:25:00,66.3,60.7,30.15,East,83,6.0,9.0,82,0.00,,SKC,0.00,VWS V14.01,2013-01-08 20:25:00,
2013-01-08 14:30:00,66.7,61.0,30.15,NE,44,8.0,9.0,82,0.00,,SKC,0.00,VWS V14.01,2013-01-08 20:30:00,
2013-01-08 14:35:00,67.4,61.0,30.15,ENE,72,5.0,9.0,80,0.00,,SKC,0.00,VWS V14.01,2013-01-08 20:35:00,
2013-01-08 14:40:00,67.2,60.8,30.15,ENE,63,5.0,11.0,80,0.00,,SKC,0.00,VWS V14.01,2013-01-08 20:40:00,
2013-01-08 14:45:00,66.8,60.4,30.15,ENE,66,3.0,11.0,80,0.00,,SKC,0.00,VWS V14.01,2013-01-08 20:45:00,
2013-01-08 14:50:00,66.6,60.6,30.15,East,88,4.0,11.0,81,0.00,,SKC,0.00,VWS V14.01,2013-01-08 20:50:00,
2013-01-08 14:55:00,67.0,61.0,30.15,East,95,6.0,11.0,81,0.00,,SKC,0.00,VWS V14.01,2013-01-08 20:55:00,
2013-01-08 15:00:00,67.5,61.1,30.15,ENE,61,6.0,11.0,80,0.00,,SKC,0.00,VWS V14.01,2013-01-08 21:00:00,
2013-01-08 15:05:00,67.8,61.1,30.14,ENE,71,5.0,9.0,79,0.00,,SKC,0.00,VWS V14.01,2013-01-08 21:05:00,
2013-01-08 15:10:00,67.7,61.0,30.14,ENE,76,5.0,9.0,79,0.00,,SKC,0.00,VWS V14.01,2013-01-08 21:10:00,
2013-01-08 15:15:00,67.5,60.8,30.14,NE,51,4.0,9.0,79,0.00,,SKC,0.00,VWS V14.01,2013-01-08 21:15:00,
2013-01-08 15:20:00,67.5,61.1,30.14,ENE,61,2.0,9.0,80,0.00,,SKC,0.00,VWS V14.01,2013-01-08 21:20:00,
2013-01-08 15:25:00,67.2,60.8,30.14,ENE,63,5.0,9.0,80,0.00,,SKC,0.00,VWS V14.01,2013-01-08 21:25:00,
2013-01-08 15:30:00,66.9,60.5,30.14,ENE,61,1.0,9.0,80,0.00,,SKC,0.00,VWS V14.01,2013-01-08 21:30:00,
2013-01-08 15:35:00,67.0,61.0,30.15,East,85,2.0,6.0,81,0.00,,SKC,0.00,VWS V14.01,2013-01-08 21:35:00,
2013-01-08 15:40:00,66.8,60.8,30.15,East,98,4.0,7.0,81,0.00,,SKC,0.00,VWS V14.01,2013-01-08 21:40:00,
2013-01-08 15:45:00,66.7,61.0,30.15,SE,137,0.0,7.0,82,0.00,,SKC,0.00,VWS V14.01,2013-01-08 21:45:00,
2013-01-08 15:50:00,66.6,60.9,30.15,ESE,113,1.0,8.0,82,0.00,,SKC,0.00,VWS V14.01,2013-01-08 21:50:00,
2013-01-08 15:55:00,66.5,60.8,30.15,SE,130,4.0,8.0,82,0.00,,SKC,0.00,VWS V14.01,2013-01-08 21:55:00,
2013-01-08 16:00:00,66.2,60.5,30.15,ESE,105,4.0,8.0,82,0.00,,SKC,0.00,VWS V14.01,2013-01-08 22:00:00,
2013-01-08 16:05:00,66.0,60.7,30.15,SE,129,4.0,7.0,83,0.00,,SKC,0.00,VWS V14.01,2013-01-08 22:05:00,
2013-01-08 16:10:00,65.9,60.6,30.15,SE,127,3.0,8.0,83,0.00,,SKC,0.00,VWS V14.01,2013-01-08 22:10:00,
2013-01-08 16:15:00,65.9,60.6,30.14,East,87,4.0,8.0,83,0.00,,SKC,0.00,VWS V14.01,2013-01-08 22:15:00,
2013-01-08 16:20:00,65.8,60.5,30.14,East,88,2.0,8.0,83,0.00,,SKC,0.00,VWS V14.01,2013-01-08 22:20:00,
2013-01-08 16:25:00,65.7,60.4,30.14,East,91,4.0,8.0,83,0.00,,SKC,0.00,VWS V14.01,2013-01-08 22:25:00,
2013-01-08 16:30:00,65.6,60.3,30.14,ESE,104,6.0,8.0,83,0.00,,SKC,0.00,VWS V14.01,2013-01-08 22:30:00,
2013-01-08 16:35:00,65.3,60.3,30.14,East,85,3.0,9.0,84,0.00,,SKC,0.00,VWS V14.01,2013-01-08 22:35:00,
2013-01-08 16:40:00,65.0,60.0,30.14,ESE,111,6.0,9.0,84,0.00,,SKC,0.00,VWS V14.01,2013-01-08 22:40:00,
2013-01-08 16:45:00,64.7,59.8,30.13,ESE,113,2.0,9.0,84,0.00,,SKC,0.00,VWS V14.01,2013-01-08 22:45:00,
2013-01-08 16:50:00,64.5,59.6,30.13,East,82,4.0,9.0,84,0.00,,SKC,0.00,VWS V14.01,2013-01-08 22:50:00,
2013-01-08 16:55:00,64.2,59.3,30.12,ESE,102,7.0,10.0,84,0.00,,SKC,0.00,VWS V14.01,2013-01-08 22:55:00,
2013-01-08 17:00:00,63.8,58.9,30.13,East,89,4.0,10.0,84,0.00,,SKC,0.00,VWS V14.01,2013-01-08 23:00:00,
2013-01-08 17:05:00,63.6,59.0,30.13,ENE,72,5.0,8.0,85,0.00,,SKC,0.00,VWS V14.01,2013-01-08 23:05:00,
2013-01-08 17:10:00,63.3,58.7,30.14,ESE,114,1.0,8.0,85,0.00,,SKC,0.00,VWS V14.01,2013-01-08 23:10:00,
2013-01-08 17:15:00,63.0,58.4,30.14,ESE,114,4.0,8.0,85,0.00,,SKC,0.00,VWS V14.01,2013-01-08 23:15:00,
2013-01-08 17:20:00,62.8,58.6,30.14,East,96,3.0,8.0,86,0.00,,SKC,0.00,VWS V14.01,2013-01-08 23:20:00,
2013-01-08 17:25:00,62.6,58.4,30.14,East,86,5.0,8.0,86,0.00,,SKC,0.00,VWS V14.01,2013-01-08 23:25:00,
2013-01-08 17:30:00,62.4,58.5,30.14,East,95,4.0,8.0,87,0.00,,SKC,0.00,VWS V14.01,2013-01-08 23:30:00,
2013-01-08 17:35:00,62.4,58.5,30.14,East,101,5.0,6.0,87,0.00,,SKC,0.00,VWS V14.01,2013-01-08 23:35:00,
2013-01-08 17:40:00,62.4,58.5,30.14,ESE,118,5.0,7.0,87,0.00,,SKC,0.00,VWS V14.01,2013-01-08 23:40:00,
2013-01-08 17:45:00,62.3,58.4,30.14,SE,125,5.0,8.0,87,0.00,,SKC,0.00,VWS V14.01,2013-01-08 23:45:00,
2013-01-08 17:50:00,62.3,58.7,30.15,ESE,119,5.0,8.0,88,0.00,,SKC,0.00,VWS V14.01,2013-01-08 23:50:00,
2013-01-08 17:55:00,62.3,58.7,30.15,East,96,4.0,9.0,88,0.00,,SKC,0.00,VWS V14.01,2013-01-08 23:55:00,
2013-01-08 18:00:00,62.3,58.7,30.15,East,94,5.0,9.0,88,0.00,,SKC,0.00,VWS V14.01,2013-01-09 00:00:00,
2013-01-08 18:05:00,62.3,58.4,30.15,East,89,7.0,9.0,87,0.00,,SKC,0.00,VWS V14.01,2013-01-09 00:05:00,
2013-01-08 18:10:00,62.3,58.4,30.15,East,89,4.0,9.0,87,0.00,,SKC,0.00,VWS V14.01,2013-01-09 00:10:00,
2013-01-08 18:15:00,62.3,58.4,30.15,ESE,119,5.0,9.0,87,0.00,,SKC,0.00,VWS V14.01,2013-01-09 00:15:00,
2013-01-08 18:20:00,62.3,58.4,30.15,East,85,6.0,10.0,87,0.00,,SKC,0.00,VWS V14.01,2013-01-09 00:20:00,
2013-01-08 18:25:00,62.3,58.4,30.15,ESE,105,4.0,10.0,87,0.00,,SKC,0.00,VWS V14.01,2013-01-09 00:25:00,
2013-01-08 18:30:00,62.3,58.4,30.15,East,99,4.0,10.0,87,0.00,,SKC,0.00,VWS V14.01,2013-01-09 00:30:00,
2013-01-08 18:35:00,62.3,58.7,30.16,East,97,4.0,8.0,88,0.00,,SKC,0.00,VWS V14.01,2013-01-09 00:35:00,
2013-01-08 18:40:00,62.3,58.7,30.16,ENE,57,1.0,8.0,88,0.00,,SKC,0.00,VWS V14.01,2013-01-09 00:40:00,
2013-01-08 18:45:00,62.3,58.7,30.16,East,101,4.0,8.0,88,0.00,,SKC,0.00,VWS V14.01,2013-01-09 00:45:00,
2013-01-08 18:50:00,62.3,59.0,30.16,East,92,1.0,8.0,89,0.00,,SKC,0.00,VWS V14.01,2013-01-09 00:50:00,
2013-01-08 18:55:00,62.3,59.0,30.16,ENE,78,2.0,9.0,89,0.00,,SKC,0.00,VWS V14.01,2013-01-09 00:55:00,
2013-01-08 19:00:00,62.3,59.0,30.16,ESE,103,5.0,9.0,89,0.00,,SKC,0.00,VWS V14.01,2013-01-09 01:00:00,
2013-01-08 19:05:00,62.3,59.0,30.16,ESE,111,6.0,6.0,89,0.00,,SKC,0.00,VWS V14.01,2013-01-09 01:05:00,
2013-01-08 19:10:00,62.3,59.0,30.15,ESE,120,4.0,7.0,89,0.00,,SKC,0.00,VWS V14.01,2013-01-09 01:10:00,
2013-01-08 19:15:00,62.3,59.0,30.15,ESE,103,4.0,7.0,89,0.00,,SKC,0.00,VWS V14.01,2013-01-09 01:15:00,
2013-01-08 19:20:00,62.3,59.3,30.15,East,90,5.0,8.0,90,0.00,,SKC,0.00,VWS V14.01,2013-01-09 01:20:00,
2013-01-08 19:25:00,62.3,59.3,30.15,ESE,102,4.0,8.0,90,0.00,,SKC,0.00,VWS V14.01,2013-01-09 01:25:00,
2013-01-08 19:30:00,62.3,59.3,30.15,ESE,113,5.0,8.0,90,0.00,,SKC,0.00,VWS V14.01,2013-01-09 01:30:00,
2013-01-08 19:35:00,62.4,59.4,30.14,East,82,3.0,7.0,90,0.00,,SKC,0.00,VWS V14.01,2013-01-09 01:35:00,
2013-01-08 19:40:00,62.5,59.5,30.14,East,90,4.0,10.0,90,0.00,,SKC,0.00,VWS V14.01,2013-01-09 01:40:00,
2013-01-08 19:45:00,62.5,59.5,30.14,ESE,111,6.0,11.0,90,0.00,,SKC,0.00,VWS V14.01,2013-01-09 01:45:00,
2013-01-08 19:50:00,62.5,59.5,30.14,ESE,103,2.0,11.0,90,0.00,,SKC,0.00,VWS V14.01,2013-01-09 01:50:00,
2013-01-08 19:55:00,62.4,59.4,30.14,East,101,6.0,11.0,90,0.00,,SKC,0.00,VWS V14.01,2013-01-09 01:55:00,
2013-01-08 20:00:00,62.3,59.3,30.14,ESE,110,4.0,11.0,90,0.00,,SKC,0.00,VWS V14.01,2013-01-09 02:00:00,
2013-01-08 20:05:00,62.3,59.3,30.14,ESE,109,5.0,10.0,90,0.00,,SKC,0.00,VWS V14.01,2013-01-09 02:05:00,
2013-01-08 20:10:00,62.4,59.4,30.14,ESE,105,4.0,10.0,90,0.00,,SKC,0.00,VWS V14.01,2013-01-09 02:10:00,
2013-01-08 20:15:00,62.4,59.4,30.14,ESE,103,7.0,10.0,90,0.00,,SKC,0.00,VWS V14.01,2013-01-09 02:15:00,
2013-01-08 20:20:00,62.4,59.4,30.14,East,100,5.0,11.0,90,0.00,,SKC,0.00,VWS V14.01,2013-01-09 02:20:00,
2013-01-08 20:25:00,62.4,59.1,30.14,East,89,7.0,11.0,89,0.00,,SKC,0.00,VWS V14.01,2013-01-09 02:25:00,
2013-01-08 20:30:00,62.4,59.1,30.14,ENE,78,5.0,11.0,89,0.00,,SKC,0.00,VWS V14.01,2013-01-09 02:30:00,
2013-01-08 20:35:00,62.5,59.2,30.14,ESE,115,5.0,7.0,89,0.00,,SKC,0.00,VWS V14.01,2013-01-09 02:35:00,
2013-01-08 20:40:00,62.4,59.1,30.14,East,101,6.0,9.0,89,0.00,,SKC,0.00,VWS V14.01,2013-01-09 02:40:00,
2013-01-08 20:45:00,62.4,59.1,30.14,ESE,106,6.0,9.0,89,0.00,,SKC,0.00,VWS V14.01,2013-01-09 02:45:00,
2013-01-08 20:50:00,62.4,59.1,30.14,ESE,114,6.0,9.0,89,0.00,,SKC,0.00,VWS V14.01,2013-01-09 02:50:00,
2013-01-08 20:55:00,62.4,58.8,30.14,East,101,3.0,9.0,88,0.00,,SKC,0.00,VWS V14.01,2013-01-09 02:55:00,
2013-01-08 21:00:00,62.4,58.8,30.15,ESE,106,3.0,9.0,88,0.00,,SKC,0.00,VWS V14.01,2013-01-09 03:00:00,
2013-01-08 21:05:00,62.4,58.8,30.15,ENE,78,5.0,7.0,88,0.00,,SKC,0.00,VWS V14.01,2013-01-09 03:05:00,
2013-01-08 21:10:00,62.4,58.5,30.15,ENE,74,7.0,7.0,87,0.00,,SKC,0.00,VWS V14.01,2013-01-09 03:10:00,
2013-01-08 21:15:00,62.5,58.6,30.15,East,83,2.0,7.0,87,0.00,,SKC,0.00,VWS V14.01,2013-01-09 03:15:00,
2013-01-08 21:20:00,62.4,58.5,30.15,East,92,5.0,7.0,87,0.00,,SKC,0.00,VWS V14.01,2013-01-09 03:20:00,
2013-01-08 21:25:00,62.4,58.5,30.15,East,88,5.0,7.0,87,0.00,,SKC,0.00,VWS V14.01,2013-01-09 03:25:00,
2013-01-08 21:30:00,62.3,58.4,30.15,SE,128,4.0,7.0,87,0.00,,SKC,0.00,VWS V14.01,2013-01-09 03:30:00,
2013-01-08 21:35:00,62.3,58.1,30.16,ESE,103,6.0,7.0,86,0.00,,SKC,0.00,VWS V14.01,2013-01-09 03:35:00,
2013-01-08 21:40:00,62.4,58.2,30.16,ENE,76,2.0,7.0,86,0.00,,SKC,0.00,VWS V14.01,2013-01-09 03:40:00,
2013-01-08 21:45:00,62.4,58.2,30.16,East,94,2.0,7.0,86,0.00,,SKC,0.00,VWS V14.01,2013-01-09 03:45:00,
2013-01-08 21:50:00,62.4,58.2,30.16,ENE,72,5.0,7.0,86,0.00,,SKC,0.00,VWS V14.01,2013-01-09 03:50:00,
2013-01-08 21:55:00,62.4,57.8,30.16,East,80,5.0,7.0,85,0.00,,SKC,0.00,VWS V14.01,2013-01-09 03:55:00,
2013-01-08 22:00:00,62.4,57.8,30.16,East,87,1.0,7.0,85,0.00,,SKC,0.00,VWS V14.01,2013-01-09 04:00:00,
2013-01-08 22:05:00,62.4,57.8,30.16,ENE,73,6.0,10.0,85,0.00,,SKC,0.00,VWS V14.01,2013-01-09 04:05:00,
2013-01-08 22:10:00,62.4,57.8,30.16,ENE,74,5.0,10.0,85,0.00,,SKC,0.00,VWS V14.01,2013-01-09 04:10:00,
2013-01-08 22:15:00,62.3,57.7,30.16,East,91,2.0,10.0,85,0.00,,SKC,0.00,VWS V14.01,2013-01-09 04:15:00,
2013-01-08 22:20:00,62.3,57.7,30.16,ESE,116,1.0,10.0,85,0.00,,SKC,0.00,VWS V14.01,2013-01-09 04:20:00,
2013-01-08 22:25:00,62.3,57.7,30.16,East,86,4.0,10.0,85,0.00,,SKC,0.00,VWS V14.01,2013-01-09 04:25:00,
2013-01-08 22:30:00,62.3,57.7,30.16,East,96,5.0,10.0,85,0.00,,SKC,0.00,VWS V14.01,2013-01-09 04:30:00,
2013-01-08 22:35:00,62.2,57.6,30.16,East,90,4.0,6.0,85,0.00,,SKC,0.00,VWS V14.01,2013-01-09 04:35:00,
2013-01-08 22:40:00,62.2,57.6,30.16,East,82,2.0,6.0,85,0.00,,SKC,0.00,VWS V14.01,2013-01-09 04:40:00,
2013-01-08 22:45:00,62.1,57.5,30.17,East,87,1.0,6.0,85,0.00,,SKC,0.00,VWS V14.01,2013-01-09 04:45:00,
2013-01-08 22:50:00,62.1,57.5,30.16,ENE,73,2.0,6.0,85,0.00,,SKC,0.00,VWS V14.01,2013-01-09 04:50:00,
2013-01-08 22:55:00,62.0,57.5,30.17,ENE,73,2.0,6.0,85,0.00,,SKC,0.00,VWS V14.01,2013-01-09 04:55:00,
2013-01-08 23:00:00,61.9,57.7,30.17,ENE,73,0.0,6.0,86,0.00,,SKC,0.00,VWS V14.01,2013-01-09 05:00:00,
2013-01-08 23:02:00,61.9,57.7,30.17,ENE,73,2.0,4.0,86,0.00,,SKC,0.00,VWS V14.01,2013-01-09 05:02:00,
2013-01-08 23:03:00,61.9,57.7,30.17,ENE,73,4.0,4.0,86,0.00,,SKC,0.00,VWS V14.01,2013-01-09 05:03:00,
2013-01-08 23:08:00,61.9,57.7,30.17,ENE,73,1.0,4.0,86,0.00,,SKC,0.00,VWS V14.01,2013-01-09 05:08:00,
2013-01-08 23:13:00,61.9,57.7,30.17,ENE,73,4.0,5.0,86,0.00,,SKC,0.00,VWS V14.01,2013-01-09 05:13:00,
2013-01-08 23:18:00,61.8,57.6,30.17,East,88,0.0,5.0,86,0.00,,SKC,0.00,VWS V14.01,2013-01-09 05:18:00,
2013-01-08 23:23:00,61.8,57.6,30.17,East,88,1.0,5.0,86,0.00,,SKC,0.00,VWS V14.01,2013-01-09 05:23:00,
2013-01-08 23:28:00,61.8,57.6,30.17,East,88,0.0,5.0,86,0.00,,SKC,0.00,VWS V14.01,2013-01-09 05:28:00,
2013-01-08 23:33:00,61.8,57.6,30.17,East,88,0.0,1.0,86,0.00,,SKC,0.00,VWS V14.01,2013-01-09 05:33:00,
2013-01-08 23:38:00,61.8,57.6,30.17,East,88,0.0,3.0,86,0.00,,SKC,0.00,VWS V14.01,2013-01-09 05:38:00,
2013-01-08 23:43:00,61.8,57.6,30.16,East,88,1.0,5.0,86,0.00,,SKC,0.00,VWS V14.01,2013-01-09 05:43:00,
2013-01-08 23:48:00,61.8,57.6,30.17,East,88,0.0,5.0,86,0.00,,SKC,0.00,VWS V14.01,2013-01-09 05:48:00,
2013-01-08 23:53:00,61.8,57.6,30.17,East,88,0.0,5.0,86,0.00,,SKC,0.00,VWS V14.01,2013-01-09 05:53:00,
2013-01-08 23:58:00,61.8,57.6,30.17,East,88,0.0,5.0,86,0.00,,SKC,0.00,VWS V14.01,2013-01-09 05:58:00,